Date String (YYYY-MM-DD hh:mm:ss) UTC,Instrument flags,absolute air pressure of the measurement (hPa),sample flow rate (lpm),inlet stack bypass flow (lpm),air temperature of the measurement (°C),ambient temperature measured by the external sensor (°C),aerosol sample conditioner tube jacket temperature (°C),OPC LED temperature (°C),internal box temperature (°C),relative humidity of the measurement (%),span deviation,mass concentration of particles derived from Lorenz-Mie calculation of OPC scattering (μg/m³),mass concentration of particles derived from Lorenz-Mie calculation of OPC scattering (μg/m³),mass concentration of particles derived from Lorenz-Mie calculation of OPC scattering (μg/m³)
DateTimeUTC,F1_M11,P_M11,Q1_M11,Q2_M11,T1_M11,T2_M11,T3_M11,T4_M11,T5_M11,U1_M11,ZSPAN_M11,X2_M11,X0_M11,X1_M11
2024-06-11 16:00:00,SystemResetWarning,0831.7,4.99,000.00,029.9,027.8,000.0,038.2,031.0,033.5,0000.0,0005.96,0013.11,0005.15
2024-06-11 16:01:00,SystemResetWarning,0831.6,5.01,000.00,029.5,026.3,000.0,038.3,030.2,033.4,0000.0,0005.99,0012.55,0005.16
2024-06-11 16:02:00,SystemResetWarning,0831.6,5.00,000.00,029.3,026.3,000.0,038.2,030.1,034.0,0000.0,0005.95,0012.57,0005.15
2024-06-11 16:03:00,SystemResetWarning,0831.6,5.00,000.00,029.2,026.7,000.0,038.1,030.3,034.1,0000.0,0005.96,0012.07,0005.17
2024-06-11 16:04:00,SystemResetWarning,0831.6,5.00,000.00,029.2,027.1,000.0,038.0,030.5,034.0,0000.0,0005.97,0011.64,0005.17
2024-06-11 16:05:00,SystemResetWarning,0831.7,5.00,000.00,029.2,027.5,000.0,037.9,030.7,034.1,0000.0,0005.98,0012.22,0005.17
2024-06-11 16:06:00,SystemResetWarning,0831.7,5.00,000.00,029.3,027.8,000.0,037.8,030.9,033.8,0000.0,0005.96,0012.80,0005.17
2024-06-11 16:07:00,SystemResetWarning,0831.7,5.00,000.00,029.3,028.1,000.0,037.8,031.0,033.7,0000.0,0005.95,0013.13,0005.18
2024-06-11 16:08:00,SystemResetWarning,0831.7,5.00,000.00,029.4,028.3,000.0,037.8,031.1,033.7,0000.0,0005.96,0012.81,0005.17
2024-06-11 16:09:00,SystemResetWarning,0831.7,5.00,000.00,029.4,028.5,000.0,037.8,031.1,033.8,0000.0,0005.99,0012.66,0005.18
2024-06-11 16:10:00,SystemResetWarning,0831.7,5.00,000.00,029.5,028.7,000.0,037.8,031.2,033.5,0000.0,0006.02,0012.80,0005.20
2024-06-11 16:11:00,SystemResetWarning,0832.2,4.99,000.00,029.5,028.8,000.0,037.8,031.3,033.2,0000.0,0006.04,0012.87,0005.22
2024-06-11 16:12:00,SystemResetWarning,0832.2,5.00,000.00,029.6,029.0,000.0,037.8,031.4,032.9,0000.0,0006.04,0013.96,0005.24
2024-06-11 16:13:00,SystemResetWarning,0832.0,5.00,000.00,029.6,029.1,000.0,037.9,031.4,032.8,0000.0,0006.09,0014.84,0005.28
2024-06-11 16:14:00,SystemResetWarning,0831.7,5.00,000.00,029.7,029.2,000.0,037.9,031.5,033.0,0000.0,0006.15,0014.99,0005.29
2024-06-11 16:15:00,SystemResetWarning,0831.8,5.00,000.00,029.8,029.3,000.0,037.9,031.6,033.1,0000.0,0006.16,0015.64,0005.30
2024-06-11 16:16:00,SystemResetWarning,0832.1,5.01,000.00,029.8,029.3,000.0,038.0,031.6,032.6,0000.0,0006.17,0015.76,0005.31
2024-06-11 16:17:00,SystemResetWarning,0831.8,5.01,000.00,029.9,029.4,000.0,038.0,031.7,032.4,0000.0,0006.22,0015.25,0005.33
2024-06-11 16:18:00,SystemResetWarning,0831.7,5.00,000.00,029.9,028.9,000.0,038.1,031.4,032.5,0000.0,0006.20,0014.90,0005.33
2024-06-11 16:19:00,SystemResetWarning,0831.6,5.00,000.00,029.6,027.0,000.0,038.1,030.5,033.5,0000.0,0006.22,0014.70,0005.36
2024-06-11 16:20:00,SystemResetWarning,0831.6,5.01,000.00,029.2,026.1,000.0,038.1,030.0,034.9,0000.0,0006.22,0014.82,0005.37
2024-06-11 16:21:00,SystemResetWarning,0831.7,5.01,000.00,029.1,026.3,000.0,038.0,030.0,035.3,0000.0,0006.23,0014.52,0005.38
2024-06-11 16:22:00,SystemResetWarning,0831.7,5.00,000.00,029.0,026.7,000.0,037.9,030.2,034.9,0000.0,0006.25,0014.82,0005.38
2024-06-11 16:23:00,SystemResetWarning,0831.8,5.00,000.00,029.1,027.1,000.0,037.8,030.5,034.6,0000.0,0006.29,0014.01,0005.40
2024-06-11 16:24:00,SystemResetWarning,0831.9,5.00,000.00,029.1,027.5,000.0,037.7,030.7,034.0,0000.0,0006.27,0013.00,0005.39
2024-06-11 16:25:00,SystemResetWarning,0831.7,5.00,000.00,029.1,027.8,000.0,037.7,030.8,034.0,0000.0,0006.25,0012.87,0005.39
2024-06-11 16:26:00,SystemResetWarning,0831.7,5.00,000.00,029.2,028.1,000.0,037.7,030.9,034.4,0000.0,0006.27,0013.10,0005.41
2024-06-11 16:27:00,SystemResetWarning,0831.8,5.00,000.00,029.3,028.3,000.0,037.7,031.0,033.5,0000.0,0006.28,0013.02,0005.43
2024-06-11 16:28:00,SystemResetWarning,0831.7,5.01,000.00,029.3,028.5,000.0,037.7,031.1,033.5,0000.0,0006.28,0013.32,0005.44
2024-06-11 16:29:00,SystemResetWarning,0831.7,5.00,000.00,029.4,028.7,000.0,037.7,031.2,033.5,0000.0,0006.33,0013.42,0005.46
2024-06-11 16:30:00,SystemResetWarning,0831.7,5.00,000.00,029.4,028.8,000.0,037.7,031.3,033.6,0000.0,0006.35,0013.47,0005.48
2024-06-11 16:31:00,SystemResetWarning,0831.7,4.99,000.00,029.5,028.9,000.0,037.7,031.3,034.0,0000.0,0006.33,0013.54,0005.48
2024-06-11 16:32:00,SystemResetWarning,0831.7,5.00,000.00,029.6,029.0,000.0,037.8,031.4,033.4,0000.0,0006.35,0013.45,0005.49
2024-06-11 16:33:00,SystemResetWarning,0832.3,5.01,000.00,029.6,029.1,000.0,037.8,031.4,033.0,0000.0,0006.33,0012.81,0005.49
2024-06-11 16:34:00,SystemResetWarning,0832.2,5.00,000.00,029.7,029.2,000.0,037.8,031.5,032.9,0000.0,0006.31,0012.34,0005.49
2024-06-11 16:35:00,SystemResetWarning,0832.3,5.00,000.00,029.8,029.3,000.0,037.9,031.6,032.6,0000.0,0006.34,0012.25,0005.50
2024-06-11 16:36:00,SystemResetWarning,0832.1,4.98,000.00,029.8,029.0,000.0,037.9,031.4,033.0,0000.0,0006.34,0012.24,0005.51
2024-06-11 16:37:00,SystemResetWarning,0831.7,5.00,000.00,029.5,027.2,000.0,038.0,030.5,033.0,0000.0,0006.33,0011.58,0005.51
2024-06-11 16:38:00,SystemResetWarning,0831.6,5.01,000.00,029.2,026.0,000.0,038.0,029.9,033.9,0000.0,0006.35,0011.26,0005.53
2024-06-11 16:39:00,SystemResetWarning,0831.6,5.01,000.00,029.0,026.2,000.0,037.9,029.9,034.6,0000.0,0006.34,0010.93,0005.53
2024-06-11 16:40:00,SystemResetWarning,0831.7,5.00,000.00,028.9,026.6,000.0,037.8,030.1,034.3,0000.0,0006.33,0011.37,0005.52
2024-06-11 16:41:00,SystemResetWarning,0831.7,5.00,000.00,029.0,027.0,000.0,037.7,030.4,034.1,0000.0,0006.36,0011.71,0005.52
2024-06-11 16:42:00,SystemResetWarning,0831.7,5.00,000.00,029.0,027.4,000.0,037.6,030.6,034.0,0000.0,0006.42,0011.68,0005.53
2024-06-11 16:43:00,SystemResetWarning,0831.7,4.99,000.00,029.1,027.8,000.0,037.6,030.7,033.9,0000.0,0006.42,0011.78,0005.53
2024-06-11 16:44:00,SystemResetWarning,0831.7,5.00,000.00,029.1,028.1,000.0,037.6,030.9,034.3,0000.0,0006.44,0012.31,0005.54
2024-06-11 16:45:00,SystemResetWarning,0831.7,5.00,000.00,029.2,028.3,000.0,037.6,031.0,033.9,0000.0,0006.49,0012.48,0005.55
2024-06-11 16:46:00,SystemResetWarning,0831.7,5.00,000.00,029.3,028.5,000.0,037.6,031.0,033.7,0000.0,0006.49,0012.49,0005.56
2024-06-11 16:47:00,SystemResetWarning,0831.7,5.00,000.00,029.3,028.7,000.0,037.6,031.1,034.6,0000.0,0006.50,0012.48,0005.55
2024-06-11 16:48:00,SystemResetWarning,0831.7,5.00,000.00,029.4,028.8,000.0,037.6,031.2,034.6,0000.0,0006.48,0012.20,0005.55
2024-06-11 16:49:00,SystemResetWarning,0831.7,5.00,000.00,029.5,028.9,000.0,037.6,031.3,034.5,0000.0,0006.48,0012.08,0005.55
2024-06-11 16:50:00,SystemResetWarning,0831.7,4.99,000.00,029.5,029.1,000.0,037.7,031.4,034.3,0000.0,0006.52,0012.15,0005.55
2024-06-11 16:51:00,SystemResetWarning,0831.7,5.00,000.00,029.6,029.2,000.0,037.7,031.4,034.3,0000.0,0006.51,0011.99,0005.56
2024-06-11 16:52:00,SystemResetWarning,0831.7,5.00,000.00,029.7,029.2,000.0,037.7,031.5,033.9,0000.0,0006.47,0011.91,0005.56
2024-06-11 16:53:00,SystemResetWarning,0831.7,4.99,000.00,029.7,029.0,000.0,037.8,031.3,033.9,0000.0,0006.42,0011.67,0005.57
2024-06-11 16:54:00,SystemResetWarning,0831.6,5.00,000.00,029.5,027.3,000.0,037.9,030.6,034.1,0000.0,0006.45,0011.66,0005.60
2024-06-11 16:55:00,SystemResetWarning,0831.6,5.01,000.00,029.1,026.0,000.0,037.9,029.9,035.2,0000.0,0006.46,0011.51,0005.63
2024-06-11 16:56:00,SystemResetWarning,0831.6,5.01,000.00,028.9,026.1,000.0,037.8,029.8,035.3,0000.0,0006.43,0011.89,0005.64
2024-06-11 16:57:00,SystemResetWarning,0831.6,5.00,000.00,028.9,026.5,000.0,037.7,030.0,034.9,0000.0,0006.47,0011.89,0005.66
2024-06-11 16:58:00,SystemResetWarning,0831.6,4.99,000.00,028.9,026.9,000.0,037.6,030.3,034.8,0000.0,0006.51,0012.43,0005.68
2024-06-11 16:59:00,SystemResetWarning,0831.6,5.00,000.00,028.9,027.3,000.0,037.5,030.5,035.1,0000.0,0006.53,0012.80,0005.70
